H1 CPF 2 NER 2023 4 20 9 110 01 glonass143 H2 2007501 9143 46805 2023 4 20 0 0 0 2023 4 23 23 45 0 900 1 1 0 0 0 1 H9 10 0 60054 0.00000 0 22889105.871 4528591.953 -10318049.590 10 0 60054 900.00000 0 23955471.326 4798512.323 -7353072.499 10 0 60054 1800.00000 0 24682201.353 4877950.932 -4245346.075 10 0 60054 2700.00000 0 25036319.848 4812528.866 -1055213.333 10 0 60054 3600.00000 0 24996864.921 4653604.352 2155399.543 10 0 60054 4500.00000 0 24555797.399 4455855.558 5324184.939 10 0 60054 5400.00000 0 23718386.949 4274728.601 8389661.754 10 0 60054 6300.00000 0 22503059.764 4163859.118 11292366.007 10 0 60054 7200.00000 0 20940714.319 4172576.652 13976000.993 10 0 60054 8100.00000 0 19073533.877 4343597.480 16388524.879 10 0 60054 9000.00000 0 16953345.249 4711003.421 18483155.028 10 0 60054 9900.00000 0 14639592.131 5298592.012 20219270.069 10 0 60054 10800.00000 0 12197007.073 6118667.859 21563192.857 10 0 60054 11700.00000 0 9693078.423 7171326.478 22488839.842 10 0 60054 12600.00000 0 7195416.877 8444261.440 22978224.806 10 0 60054 13500.00000 0 4769130.213 9913103.906 23021807.696 10 0 60054 14400.00000 0 2474314.276 11542281.537 22618682.018 10 0 60054 15300.00000 0 363763.530 13286362.228 21776597.067 10 0 60054 16200.00000 0 -1519004.648 15091827.901 20511814.240 10 0 60054 17100.00000 0 -3141330.626 16899205.620 18848799.573 10 0 60054 18000.00000 0 -4482533.000 18645468.135 16819757.623 10 0 60054 18900.00000 0 -5534522.842 20266604.402 14464014.831 10 0 60054 19800.00000 0 -6301886.575 21700253.129 11827263.317 10 0 60054 20700.00000 0 -6801434.486 22888289.188 8960679.053 10 0 60054 21600.00000 0 -7061234.347 23779254.266 5919930.902 10 0 60054 22500.00000 0 -7119171.310 24330529.245 2764099.472 10 0 60054 23400.00000 0 -7021095.420 24510156.193 -445473.132 10 0 60054 24300.00000 0 -6818635.704 24298232.509 -3646379.945 10 0 60054 25200.00000 0 -6566774.087 23687817.569 -6776368.315 10 0 60054 26100.00000 0 -6321282.789 22685312.857 -9774557.064 10 0 60054 27000.00000 0 -6136134.711 21310298.804 -12582627.137 10 0 60054 27900.00000 0 -6060997.528 19594834.632 -15145961.803 10 0 60054 28800.00000 0 -6138918.564 17582250.291 -17414713.525 10 0 60054 29700.00000 0 -6404299.330 15325480.961 -19344776.334 10 0 60054 30600.00000 0 -6881246.174 12885013.833 -20898644.617 10 0 60054 31500.00000 0 -7582367.399 10326533.100 -22046141.649 10 0 60054 32400.00000 0 -8508068.184 7718361.526 -22765003.977 10 0 60054 33300.00000 0 -9646373.536 5128805.204 -23041310.708 10 0 60054 34200.00000 0 -10973287.174 2623511.960 -22869749.821 10 0 60054 35100.00000 0 -12453671.655 262952.897 -22253716.823 10 0 60054 36000.00000 0 -14042613.216 -1899868.772 -21205244.209 10 0 60054 36900.00000 0 -15687214.360 -3821387.141 -19744763.418 10 0 60054 37800.00000 0 -17328739.371 -5469040.450 -17900704.077 10 0 60054 38700.00000 0 -18905023.063 -6822371.400 -15708938.378 10 0 60054 39600.00000 0 -20353041.959 -7873616.517 -13212081.398 10 0 60054 40500.00000 0 -21611540.253 -8627761.575 -10458660.936 10 0 60054 41400.00000 0 -22623600.490 -9102062.403 -7502172.935 10 0 60054 42300.00000 0 -23339051.108 -9325052.801 -4400040.963 10 0 60054 43200.00000 0 -23716609.805 -9335082.782 -1212500.028 10 0 60054 44100.00000 0 -23725672.721 -9178450.022 1998573.408 10 0 60054 45000.00000 0 -23347674.278 -8907204.447 5170862.258 10 0 60054 45900.00000 0 -22576960.574 -8576719.458 8242816.991 10 0 60054 46800.00000 0 -21421139.607 -8243133.016 11154847.625 10 0 60054 47700.00000 0 -19900893.573 -7960767.020 13850476.371 10 0 60054 48600.00000 0 -18049260.877 -7779634.177 16277428.759 10 0 60054 49500.00000 0 -15910417.621 -7743137.622 18388642.487 10 0 60054 50400.00000 0 -13538009.011 -7886060.298 20143174.877 10 0 60054 51300.00000 0 -10993099.672 -8232928.850 21506992.029 10 0 60054 52200.00000 0 -8341827.451 -8796821.016 22453625.028 10 0 60054 53100.00000 0 -5652857.407 -9578667.012 22964681.084 10 0 60054 54000.00000 0 -2994740.727 -10567074.818 23030200.165 10 0 60054 54900.00000 0 -433287.151 -11738687.550 22648850.447 10 0 60054 55800.00000 0 1970941.094 -13059058.973 21827958.740 10 0 60054 56700.00000 0 4164910.837 -14484011.701 20583374.950 10 0 60054 57600.00000 0 6105081.138 -15961422.447 18939172.592 10 0 60054 58500.00000 0 7758967.210 -17433360.693 16927190.304 10 0 60054 59400.00000 0 9106240.633 -18838492.163 14586422.357 10 0 60054 60300.00000 0 10139320.503 -20114646.993 11962268.984 10 0 60054 61200.00000 0 10863431.267 -21201445.152 9105660.318 10 0 60054 62100.00000 0 11296125.305 -22042868.777 6072070.320 10 0 60054 63000.00000 0 11466290.802 -22589672.832 2920439.547 10 0 60054 63900.00000 0 11412687.263 -22801531.921 -287972.272 10 0 60054 64800.00000 0 11182071.094 -22648831.891 -3490781.186 10 0 60054 65700.00000 0 10826991.222 -22114029.667 -6625697.710 10 0 60054 66600.00000 0 10403348.848 -21192522.932 -9631744.713 10 0 60054 67500.00000 0 9967825.541 -19892992.004 -12450449.970 10 0 60054 68400.00000 0 9575289.484 -18237198.630 -15026989.418 10 0 60054 69300.00000 0 9276290.586 -16259249.446 -17311258.150 10 0 60054 70200.00000 0 9114751.228 -14004354.507 -19258847.877 10 0 60054 71100.00000 0 9125950.972 -11527132.557 -20831911.683 10 0 60054 72000.00000 0 9334890.886 -8889533.700 -21999899.252 10 0 60054 72900.00000 0 9755106.920 -6158466.074 -22740148.562 10 0 60054 73800.00000 0 10387982.599 -3403225.269 -23038322.937 10 0 60054 74700.00000 0 11222590.189 -692833.327 -22888685.458 10 0 60054 75600.00000 0 12236067.120 1906602.383 -22294205.852 10 0 60054 76500.00000 0 13394511.962 4334401.187 -21266498.212 10 0 60054 77400.00000 0 14654362.391 6537588.296 -19825591.044 10 0 60054 78300.00000 0 15964197.338 8472847.390 -17999534.296 10 0 60054 79200.00000 0 17266887.720 10108066.483 -15823851.066 10 0 60054 80100.00000 0 18502005.458 11423413.982 -13340844.666 10 0 60054 81000.00000 0 19608389.603 12411901.526 -10598774.456 10 0 60054 81900.00000 0 20526761.707 13079411.664 -7650916.473 10 0 60054 82800.00000 0 21202280.446 13444190.781 -4554527.142 10 0 60054 83700.00000 0 21586927.969 13535830.135 -1369730.336 10 0 60054 84600.00000 0 21641627.504 13393779.277 1841650.466 10 0 60054 85500.00000 0 21338003.030 13065455.687 5017291.988 10 0 60055 0.00000 0 20659706.918 12604031.376 8095579.210 10 0 60055 900.00000 0 19603259.137 12065990.330 11016799.742 10 0 60055 1800.00000 0 18178363.489 11508560.958 13724297.234 10 0 60055 2700.00000 0 16407686.056 10987131.328 16165567.116 10 0 60055 3600.00000 0 14326105.456 10552756.803 18293269.644 10 0 60055 4500.00000 0 11979465.343 10249864.817 20066142.756 10 0 60055 5400.00000 0 9422880.478 10114253.308 21449797.389 10 0 60055 6300.00000 0 6718665.985 10171466.881 22417380.519 10 0 60055 7200.00000 0 3933974.926 10435618.957 22950093.669 10 0 60055 8100.00000 0 1138241.151 10908709.521 23037557.296 10 0 60055 9000.00000 0 -1599467.614 11580467.503 22678014.274 10 0 60055 9900.00000 0 -4213077.785 12428725.046 21878368.461 10 0 60055 10800.00000 0 -6642011.123 13420308.773 20654057.295 10 0 60055 11700.00000 0 -8833456.292 14512411.673 19028760.279 10 0 60055 12600.00000 0 -10744317.185 15654388.999 17033948.160 10 0 60055 13500.00000 0 -12342757.626 16789903.753 14708280.651 10 0 60055 14400.00000 0 -13609278.611 17859332.321 12096863.374 10 0 60055 15300.00000 0 -14537283.469 18802329.548 9250377.660 10 0 60055 16200.00000 0 -15133107.693 19560445.375 6224099.460 10 0 60055 17100.00000 0 -15415512.580 20079682.563 3076826.096 10 0 60055 18000.00000 0 -15414664.386 20312887.007 -130268.268 10 0 60055 18900.00000 0 -15170642.602 20221868.937 -3334825.843 10 0 60055 19800.00000 0 -14731540.914 19779164.397 -6474523.367 10 0 60055 20700.00000 0 -14151241.897 18969361.467 -9488290.651 10 0 60055 21600.00000 0 -13486960.340 17789934.127 -12317504.992 10 0 60055 22500.00000 0 -12796660.036 16251547.470 -14907137.422 10 0 60055 23400.00000 0 -12136454.088 14377820.466 -17206827.768 10 0 60055 24300.00000 0 -11558099.426 12204555.380 -19171867.191 10 0 60055 25200.00000 0 -11106691.971 9778465.531 -20764068.871 10 0 60055 26100.00000 0 -10818660.191 7155454.110 -21952509.938 10 0 60055 27000.00000 0 -10720141.905 4398515.612 -22714130.460 10 0 60055 27900.00000 0 -10825812.812 1575347.002 -23034178.280 10 0 60055 28800.00000 0 -11138215.994 -1244232.173 -22906491.495 10 0 60055 29700.00000 0 -11647620.412 -3990943.839 -22333613.580 10 0 60055 30600.00000 0 -12332414.154 -6598689.385 -21326739.345 10 0 60055 31500.00000 0 -13160015.601 -9007052.571 -19905493.081 10 0 60055 32400.00000 0 -14088264.014 -11163564.135 -18097543.390 10 0 60055 33300.00000 0 -15067230.826 -13025634.905 -15938062.268 10 0 60055 34200.00000 0 -16041375.282 -14562078.015 -13469038.958 10 0 60055 35100.00000 0 -16951953.568 -15754158.075 -10738461.884 10 0 60055 36000.00000 0 -17739579.864 -16596124.899 -7799384.524 10 0 60055 36900.00000 0 -18346831.322 -17095210.877 -4708893.444 10 0 60055 37800.00000 0 -18720787.036 -17271093.600 -1526998.637 10 0 60055 38700.00000 0 -18815393.856 -17154847.701 1684532.149 10 0 60055 39600.00000 0 -18593559.181 -16787431.308 4863372.173 10 0 60055 40500.00000 0 -18028882.346 -16217771.880 7947844.150 10 0 60055 41400.00000 0 -17106951.432 -15500532.962 10878114.801 10 0 60055 42300.00000 0 -15826150.622 -14693656.546 13597352.288 10 0 60055 43200.00000 0 -14197943.702 -13855784.933 16052824.279 10 0 60055 44100.00000 0 -12246621.233 -13043670.795 18196915.706 10 0 60055 45000.00000 0 -10008521.202 -12309684.318 19988046.933 10 0 60055 45900.00000 0 -7530754.832 -11699522.040 21391475.200 10 0 60055 46800.00000 0 -4869489.530 -11250213.344 22379964.465 10 0 60055 47700.00000 0 -2087859.315 -10988508.008 22934311.253 10 0 60055 48600.00000 0 746411.749 -10929712.307 23043716.826 10 0 60055 49500.00000 0 3563575.799 -11077022.434 22705998.708 10 0 60055 50400.00000 0 6294511.848 -11421383.387 21927637.428 10 0 60055 51300.00000 0 8873352.186 -11941879.636 20723657.280 10 0 60055 52200.00000 0 11239976.544 -12606641.742 19117342.791 10 0 60055 53100.00000 0 13342271.291 -13374231.557 17139795.580 10 0 60055 54000.00000 0 15138060.366 -14195448.513 14829339.270 10 0 60055 54900.00000 0 16596628.013 -15015481.630 12230783.034 10 0 60055 55800.00000 0 17699770.065 -15776317.098 9394557.243 10 0 60055 56700.00000 0 18442330.090 -16419300.078 6375737.375 10 0 60055 57600.00000 0 18832198.127 -16887742.513 3232974.779 10 0 60055 58500.00000 0 18889772.362 -17129466.325 27355.119 10 0 60055 59400.00000 0 18646906.764 -17099173.758 -3178793.033 10 0 60055 60300.00000 0 18145389.529 -16760543.672 -6323115.704 10 0 60055 61200.00000 0 17435017.181 -16087963.986 -9344452.646 10 0 60055 62100.00000 0 16571346.365 -15067825.837 -12184033.527 10 0 60055 63000.00000 0 15613219.135 -13699323.568 -14786627.124 10 0 60055 63900.00000 0 14620167.033 -11994725.637 -17101620.422 10 0 60055 64800.00000 0 13649804.305 -9979103.983 -19084006.183 10 0 60055 65700.00000 0 12755320.844 -7689532.263 -20695259.551 10 0 60055 66600.00000 0 11983180.937 -5173785.838 -21904086.641 10 0 60055 67500.00000 0 11371124.958 -2488597.192 -22687030.815 10 0 60055 68400.00000 0 10946558.052 302460.899 -23028925.258 10 0 60055 69300.00000 0 10725393.323 3131376.708 -22923183.530 10 0 60055 70200.00000 0 10711397.754 5928285.910 -22371922.926 10 0 60055 71100.00000 0 10896067.782 8624135.947 -21385918.681 10 0 60055 72000.00000 0 11259039.185 11153318.147 -19984390.212 10 0 60055 72900.00000 0 11769013.427 13456158.913 -18194623.769 10 0 60055 73800.00000 0 12385160.943 15481167.134 -16051438.886 10 0 60055 74700.00000 0 13058941.789 17186945.198 -13596509.026 10 0 60055 75600.00000 0 13736266.552 18543684.996 -10877549.604 10 0 60055 76500.00000 0 14359906.055 19534187.640 -7947389.117 10 0 60055 77400.00000 0 14872048.004 20154365.571 -4862941.529 10 0 60055 78300.00000 0 15216892.386 20413207.274 -1684099.948 10 0 60055 79200.00000 0 15343175.819 20332207.370 1527426.791 10 0 60055 80100.00000 0 15206518.129 19944287.299 4709311.754 10 0 60055 81000.00000 0 14771491.899 19292253.053 7799818.379 10 0 60055 81900.00000 0 14013327.425 18426855.735 10738996.192 10 0 60055 82800.00000 0 12919180.859 17404537.217 13469840.552 10 0 60055 83700.00000 0 11488911.710 16284956.174 15939394.108 10 0 60055 84600.00000 0 9735336.390 15128398.684 18099768.934 10 0 60055 85500.00000 0 7683946.366 13993182.149 19909070.011 10 0 60056 0.00000 0 5372101.937 12933161.380 21332202.649 10 0 60056 900.00000 0 2847732.813 11995440.482 22341549.578 10 0 60056 1800.00000 0 167601.496 11218387.460 22917503.347 10 0 60056 2700.00000 0 -2604803.806 10630032.329 23048846.768 10 0 60056 3600.00000 0 -5401657.629 10246916.923 22732972.286 10 0 60056 4500.00000 0 -8153370.502 10073443.777 21975936.872 10 0 60056 5400.00000 0 -10791241.301 10101751.405 20792350.895 10 0 60056 6300.00000 0 -13250079.805 10312121.369 19205102.582 10 0 60056 7200.00000 0 -15470691.399 10673900.325 17244922.568 10 0 60056 8100.00000 0 -17402121.303 11146898.727 14949796.067 10 0 60056 9000.00000 0 -19003565.337 11683207.723 12364233.097 10 0 60056 9900.00000 0 -20245867.722 12229358.043 9538410.092 10 0 60056 10800.00000 0 -21112543.418 12728729.930 6527198.900 10 0 60056 11700.00000 0 -21600282.242 13124112.251 3389101.683 10 0 60056 12600.00000 0 -21718913.637 13360302.211 185112.385 10 0 60056 13500.00000 0 -21490833.706 13386635.009 -3022472.790 10 0 60056 14400.00000 0 -20949918.909 13159335.454 -6171272.207 10 0 60056 15300.00000 0 -20139972.618 12643590.889 -9200038.470 10 0 60056 16200.00000 0 -19112770.610 11815256.485 -12049856.349 10 0 60056 17100.00000 0 -17925788.625 10662119.513 -14665294.875 10 0 60056 18000.00000 0 -16639708.573 9184667.970 -16995490.416 10 0 60056 18900.00000 0 -15315809.208 7396329.914 -18995139.228 10 0 60056 19800.00000 0 -14013351.778 5323172.377 -20625379.940 10 0 60056 20700.00000 0 -12787071.136 3003071.499 -21854548.777 10 0 60056 21600.00000 0 -11684877.961 484387.803 -22658793.112 10 0 60056 22500.00000 0 -10745868.573 -2175798.730 -23022531.789 10 0 60056 23400.00000 0 -9998725.591 -4913820.763 -22938753.747 10 0 60056 24300.00000 0 -9460575.964 -7661834.590 -22409149.629 10 0 60056 25200.00000 0 -9136353.566 -10350410.231 -21444074.246 10 0 60056 26100.00000 0 -9018692.205 -12911193.361 -20062340.939 10 0 60056 27000.00000 0 -9088352.629 -15279528.975 -18290852.069 10 0 60056 27900.00000 0 -9315164.606 -17396938.262 -16164072.886 10 0 60056 28800.00000 0 -9659443.595 -19213346.253 -13723359.009 10 0 60056 29700.00000 0 -10073821.563 -20688968.220 -11016150.607 10 0 60056 30600.00000 0 -10505414.095 -21795777.052 -8095048.852 10 0 60056 31500.00000 0 -10898231.829 -22518491.227 -5016792.698 10 0 60056 32400.00000 0 -11195733.900 -22855043.112 -1841155.917 10 0 60056 33300.00000 0 -11343415.211 -22816509.067 1370214.029 10 0 60056 34200.00000 0 -11291317.850 -22426505.341 4554992.484 10 0 60056 35100.00000 0 -10996360.293 -21720076.140 7651386.081 10 0 60056 36000.00000 0 -10424385.767 -20742121.474 10599329.630 10 0 60056 36900.00000 0 -9551842.981 -19545431.476 13341648.131 10 0 60056 37800.00000 0 -8367027.972 -18188410.287 15825161.565 10 0 60056 38700.00000 0 -6870834.205 -16732585.237 18001711.372 10 0 60056 39600.00000 0 -5076978.660 -15240005.844 19829089.148 10 0 60056 40500.00000 0 -3011693.469 -13770641.387 21271850.229 10 0 60056 41400.00000 0 -712894.758 -12379885.586 22301997.022 10 0 60056 42300.00000 0 1771137.911 -11116272.279 22899519.462 10 0 60056 43200.00000 0 4383518.006 -10019496.990 23052782.619 10 0 60056 44100.00000 0 7060872.875 -9118826.480 22758754.228 10 0 60056 45000.00000 0 9735742.348 -8431962.284 22023067.713 10 0 60056 45900.00000 0 12339156.867 -7964405.345 20859919.222 10 0 60056 46800.00000 0 14803289.368 -7709348.114 19291800.067 10 0 60056 47700.00000 0 17064071.627 -7648098.547 17349068.976 10 0 60056 48600.00000 0 19063667.018 -7751018.256 15069371.516 10 0 60056 49500.00000 0 20752697.130 -7978935.468 12496916.977 10 0 60056 50400.00000 0 22092129.492 -8284973.400 9681625.930 10 0 60056 51300.00000 0 23054747.531 -8616716.974 6678164.331 10 0 60056 52200.00000 0 23626141.059 -8918626.162 3544882.551 10 0 60056 53100.00000 0 23805175.550 -9134593.590 342679.946 10 0 60056 54000.00000 0 23603920.381 -9210537.482 -2866182.701 10 0 60056 54900.00000 0 23047039.033 -9096919.336 -6019299.230 10 0 60056 55800.00000 0 22170667.062 -8751078.596 -9055338.202 10 0 60056 56700.00000 0 21020825.444 -8139284.298 -11915242.473 10 0 60056 57600.00000 0 19651436.603 -7238415.569 -14543384.105 10 0 60056 58500.00000 0 18122027.265 -6037198.670 -16888651.392 10 0 60056 59400.00000 0 16495215.453 -4536947.090 -18905446.368 10 0 60056 60300.00000 0 14834087.866 -2751772.340 -20554573.160 10 0 60056 61200.00000 0 13199578.288 -708255.476 -21803999.846 10 0 60056 62100.00000 0 11647957.274 1555407.809 -22629479.268 10 0 60056 63000.00000 0 10228538.369 3990753.587 -23015017.085 10 0 60056 63900.00000 0 8981696.664 6540832.050 -22953178.458 10 0 60056 64800.00000 0 7937282.083 9142352.092 -22445227.879 10 0 60056 65700.00000 0 7113493.010 11728099.283 -21501099.879 10 0 60056 66600.00000 0 6516256.392 14229527.085 -20139201.504 10 0 60056 67500.00000 0 6139139.126 16579413.892 -18386050.632 10 0 60056 68400.00000 0 5963793.190 18714475.808 -16275757.229 10 0 60056 69300.00000 0 5960914.635 20577826.815 -13849357.684 10 0 60056 70200.00000 0 6091674.880 22121184.323 -11154015.108 10 0 60056 71100.00000 0 6309563.077 23306728.745 -8242101.140 10 0 60056 72000.00000 0 6562560.910 24108540.098 -5170177.128 10 0 60056 72900.00000 0 6795557.361 24513552.288 -1997894.597 10 0 60056 73800.00000 0 6952900.728 24521985.900 1213163.525 10 0 60056 74700.00000 0 6980979.631 24147242.210 4400678.197 10 0 60056 75600.00000 0 6830723.556 23415263.812 7502802.652 10 0 60056 76500.00000 0 6459916.918 22363389.308 10459360.333 10 0 60056 77400.00000 0 5835228.583 21038750.769 13213009.125 10 0 60056 78300.00000 0 4933870.879 19496281.641 15710349.404 10 0 60056 79200.00000 0 3744817.683 17796418.817 17902954.796 10 0 60056 80100.00000 0 2269529.707 16002595.139 19748306.076 10 0 60056 81000.00000 0 522155.667 14178627.010 21210610.748 10 0 60056 81900.00000 0 -1470800.205 12386105.887 22261493.066 10 0 60056 82800.00000 0 -3671331.670 10681902.016 22880541.728 10 0 60056 83700.00000 0 -6031270.874 9115883.872 23055705.156 10 0 60056 84600.00000 0 -8494061.356 7728947.711 22783526.967 10 0 60056 85500.00000 0 -10996891.422 6551438.731 22069217.102 10 0 60057 0.00000 0 -13473100.456 5602029.146 20926557.087 10 0 60057 900.00000 0 -15854760.781 4887099.052 19377640.006 10 0 60057 1800.00000 0 -18075325.440 4400646.798 17452451.071 10 0 60057 2700.00000 0 -20072236.902 4124730.649 15188293.974 10 0 60057 3600.00000 0 -21789385.141 4030424.333 12629074.596 10 0 60057 4500.00000 0 -23179313.965 4079245.611 9824454.610 10 0 60057 5400.00000 0 -24205083.079 4224997.599 6828890.797 10 0 60057 6300.00000 0 -24841707.590 4415944.870 3700578.332 10 0 60057 7200.00000 0 -25077114.188 4597231.946 500318.552 10 0 60057 8100.00000 0 -24912573.449 4713441.215 -2709666.573 10 0 60057 9000.00000 0 -24362589.734 4711181.148 -5866949.642 10 0 60057 9900.00000 0 -23454253.152 4541594.145 -8910118.316 10 0 60057 10800.00000 0 -22226080.871 4162676.643 -11779976.500 10 0 60057 11700.00000 0 -20726396.738 3541312.010 -14420702.023 10 0 60057 12600.00000 0 -19011317.749 2654928.949 -16780937.556 10 0 60057 13500.00000 0 -17142432.480 1492714.123 -18814793.010 10 0 60057 14400.00000 0 -15184269.437 56326.636 -20482739.697 10 0 60057 15300.00000 0 -13201661.984 -1639916.783 -21752378.767 10 0 60057 16200.00000 0 -11257120.464 -3569394.692 -22599069.256 10 0 60057 17100.00000 0 -9408321.566 -5694058.021 -23006403.873 10 0 60057 18000.00000 0 -7705819.699 -7965795.392 -22966523.756 10 0 60057 18900.00000 0 -6191075.469 -10328230.259 -22480266.558 10 0 60057 19800.00000 0 -4894882.849 -12718875.466 -21557145.454 10 0 60057 20700.00000 0 -3836259.680 -15071555.831 -20215159.762 10 0 60057 21600.00000 0 -3021846.662 -17318998.188 -18480441.147 10 0 60057 22500.00000 0 -2445838.541 -19395481.385 -16386742.329 10 0 60057 23400.00000 0 -2090448.945 -21239436.001 -13974778.307 10 0 60057 24300.00000 0 -1926887.884 -22795885.784 -11291432.864 10 0 60057 25200.00000 0 -1916809.475 -24018629.246 -8388845.753 10 0 60057 26100.00000 0 -2014167.677 -24872070.630 -5323398.345 10 0 60057 27000.00000 0 -2167400.767 -25332624.170 -2154617.543 10 0 60057 27900.00000 0 -2321851.437 -25389633.323 1055980.636 10 0 60057 28800.00000 0 -2422319.577 -25045767.060 4246085.091 10 0 60057 29700.00000 0 -2415639.322 -24316877.171 7353797.956 10 0 60057 30600.00000 0 -2253171.046 -23231323.157 10318833.609 10 0 60057 31500.00000 0 -1893102.703 -21828793.446 13083685.056 10 0 60057 32400.00000 0 -1302462.984 -20158672.655 15594735.226 10 0 60057 33300.00000 0 -458761.092 -18278023.439 17803291.964 10 0 60057 34200.00000 0 648816.461 -16249267.318 19666527.069 10 0 60057 35100.00000 0 2018702.971 -14137661.146 21148301.812 10 0 60057 36000.00000 0 3636773.000 -12008674.068 22219863.606 10 0 60057 36900.00000 0 5476696.744 -9925373.723 22860400.914 10 0 60057 37800.00000 0 7500813.848 -7945929.835 23057446.174 10 0 60057 38700.00000 0 9661491.666 -6121338.272 22807119.226 10 0 60057 39600.00000 0 11902912.894 -4493459.534 22114206.556 10 0 60057 40500.00000 0 14163219.623 -3093452.546 20992074.562 10 0 60057 41400.00000 0 16376925.941 -1940668.295 19462417.962 10 0 60057 42300.00000 0 18477499.751 -1042048.908 17554847.480 10 0 60057 43200.00000 0 20400007.104 -392056.771 15306323.853 10 0 60057 44100.00000 0 22083709.270 26863.756 12760448.196 10 0 60057 45000.00000 0 23474504.270 243311.748 9966621.628 10 0 60057 45900.00000 0 24527110.600 295483.589 6979089.800 10 0 60057 46800.00000 0 25206901.286 229316.666 3855890.447 10 0 60057 47700.00000 0 25491310.765 96301.730 657724.368 10 0 60057 48600.00000 0 25370754.860 -48942.913 -2553227.992 10 0 60057 49500.00000 0 24849024.541 -151231.906 -5714520.831 10 0 60057 50400.00000 0 23943136.424 -157398.646 -8764663.776 10 0 60057 51300.00000 0 22682645.942 -18795.730 -11644324.562 10 0 60057 52200.00000 0 21108451.946 306396.986 -14297489.438 10 0 60057 53100.00000 0 19271143.055 851155.640 -16672557.895 10 0 60057 54000.00000 0 17228955.422 1637973.343 -18723349.965 10 0 60057 54900.00000 0 15045427.876 2677669.251 -20410006.173 10 0 60057 55800.00000 0 12786853.025 3968696.935 -21699762.580 10 0 60057 56700.00000 0 10519631.188 5496982.123 -22567586.059 10 0 60057 57600.00000 0 8307637.794 7236297.453 -22996657.805 10 0 60057 58500.00000 0 6209714.036 9149159.254 -22978696.128 10 0 60057 59400.00000 0 4277385.012 11188209.421 -22514112.777 10 0 60057 60300.00000 0 2552899.790 13298025.161 -21612000.170 10 0 60057 61200.00000 0 1067674.176 15417281.418 -20289950.141 10 0 60057 62100.00000 0 -158800.113 17481176.054 -18573707.986 10 0 60057 63000.00000 0 -1119535.734 19424016.868 -16496668.601 10 0 60057 63900.00000 0 -1820096.753 21181862.649 -14099224.588 10 0 60057 64800.00000 0 -2278112.095 22695108.178 -11427978.954 10 0 60057 65700.00000 0 -2522277.401 23910905.268 -8534837.683 10 0 60057 66600.00000 0 -2590888.745 24785318.937 -5475999.886 10 0 60057 67500.00000 0 -2529971.273 25285128.527 -2310865.207 10 0 60057 68400.00000 0 -2391082.832 25389198.556 899120.178 10 0 60057 69300.00000 0 -2228886.222 25089362.236 4091656.284 10 0 60057 70200.00000 0 -2098593.363 24390780.927 7204797.459 10 0 60057 71100.00000 0 -2053389.849 23311764.736 10178152.374 10 0 60057 72000.00000 0 -2141949.133 21883062.052 12954052.497 10 0 60057 72900.00000 0 -2406141.563 20146647.909 15478666.572 10 0 60057 73800.00000 0 -2879035.198 18154061.917 17703039.769 10 0 60057 74700.00000 0 -3583272.967 15964365.115 19584037.814 10 0 60057 75600.00000 0 -4529894.876 13641800.663 21085178.416 10 0 60057 76500.00000 0 -5717655.397 11253255.415 22177334.510 10 0 60057 77400.00000 0 -7132865.497 8865627.386 22839296.332 10 0 60057 78300.00000 0 -8749767.007 6543207.833 23058181.924 10 0 60057 79200.00000 0 -10531424.956 4345185.848 22829688.460 10 0 60057 80100.00000 0 -12431101.999 2323378.323 22158179.530 10 0 60057 81000.00000 0 -14394059.018 520278.710 21056606.486 10 0 60057 81900.00000 0 -16359708.212 -1032495.066 19546264.824 10 0 60057 82800.00000 0 -18264030.010 -2315289.634 17656389.573 10 0 60057 83700.00000 0 -20042153.942 -3320997.343 15423596.635 10 0 60057 84600.00000 0 -21630996.273 -4055105.862 12891179.939 10 0 60057 85500.00000 0 -22971844.363 -4535214.555 10108277.184 99